TimeEDT,TemperatureF,Dew PointF,Humidity,Sea Level PressureIn,VisibilityMPH,Wind Direction,Wind SpeedMPH,Gust SpeedMPH,PrecipitationIn,Events,Conditions,WindDirDegrees,DateUTC
12:15 AM,61.9,61.5,99,30.14,7.0,Calm,Calm,-,N/A,,Clear,0,2012-10-05 04:15:00
12:35 AM,61.5,61.3,99,30.14,10.0,WSW,3.5,-,N/A,,Clear,250,2012-10-05 04:35:00
12:55 AM,60.6,60.4,99,30.14,10.0,Calm,Calm,-,N/A,,Clear,0,2012-10-05 04:55:00
1:15 AM,59.7,58.8,97,30.14,10.0,Calm,Calm,-,N/A,,Clear,0,2012-10-05 05:15:00
1:35 AM,59.5,58.8,97,30.14,10.0,Calm,Calm,-,N/A,,Clear,0,2012-10-05 05:35:00
1:55 AM,59.9,59.4,98,30.14,10.0,Calm,Calm,-,N/A,,Clear,0,2012-10-05 05:55:00
2:15 AM,59.9,59.5,99,30.14,7.0,Calm,Calm,-,N/A,,Clear,0,2012-10-05 06:15:00
2:35 AM,59.0,58.8,99,30.14,10.0,Calm,Calm,-,N/A,,Clear,0,2012-10-05 06:35:00
2:55 AM,59.0,58.6,99,30.13,10.0,Calm,Calm,-,N/A,,Clear,0,2012-10-05 06:55:00
3:15 AM,58.8,58.6,99,30.13,10.0,Calm,Calm,-,N/A,,Clear,0,2012-10-05 07:15:00
3:35 AM,58.6,58.5,99,30.13,10.0,Calm,Calm,-,N/A,,Clear,0,2012-10-05 07:35:00
3:55 AM,58.5,58.3,99,30.13,10.0,Calm,Calm,-,N/A,,Clear,0,2012-10-05 07:55:00
4:15 AM,58.1,57.9,99,30.13,10.0,Calm,Calm,-,N/A,,Clear,0,2012-10-05 08:15:00
4:35 AM,56.8,56.7,99,30.14,10.0,Calm,Calm,-,N/A,,Clear,0,2012-10-05 08:35:00
4:55 AM,57.2,57.0,99,30.14,5.0,Calm,Calm,-,N/A,,Clear,0,2012-10-05 08:55:00
5:15 AM,56.3,56.3,100,30.14,10.0,Calm,Calm,-,N/A,,Clear,0,2012-10-05 09:15:00
5:35 AM,56.5,56.3,99,30.14,10.0,Calm,Calm,-,N/A,,Clear,0,2012-10-05 09:35:00
5:55 AM,56.3,55.9,99,30.14,10.0,Calm,Calm,-,N/A,,Clear,0,2012-10-05 09:55:00
6:15 AM,55.9,55.6,99,30.14,10.0,Calm,Calm,-,N/A,,Clear,0,2012-10-05 10:15:00
6:35 AM,56.1,55.8,99,30.14,10.0,Calm,Calm,-,N/A,,Clear,0,2012-10-05 10:35:00
6:55 AM,55.8,55.6,99,30.14,10.0,Calm,Calm,-,N/A,,Clear,0,2012-10-05 10:55:00
7:15 AM,55.6,55.4,99,30.14,7.0,Calm,Calm,-,N/A,,Clear,0,2012-10-05 11:15:00
7:35 AM,55.8,55.8,100,30.14,10.0,Calm,Calm,-,N/A,,Clear,0,2012-10-05 11:35:00
7:55 AM,56.3,56.3,100,30.13,10.0,Calm,Calm,-,N/A,,Clear,0,2012-10-05 11:55:00
8:15 AM,57.6,57.2,99,30.13,10.0,Calm,Calm,-,N/A,,Clear,0,2012-10-05 12:15:00
8:55 AM,62.4,58.5,87,30.14,10.0,Calm,Calm,-,N/A,,Clear,0,2012-10-05 12:55:00
9:35 AM,67.6,60.1,77,30.14,10.0,Calm,Calm,-,N/A,,Clear,0,2012-10-05 13:35:00
9:55 AM,69.8,59.2,69,30.14,10.0,Calm,Calm,-,N/A,,Clear,0,2012-10-05 13:55:00
10:35 AM,74.3,59.5,60,30.14,10.0,Calm,Calm,-,N/A,,Clear,0,2012-10-05 14:35:00
10:55 AM,77.4,56.7,49,30.14,10.0,WNW,4.6,-,N/A,,Clear,300,2012-10-05 14:55:00
11:15 AM,78.3,55.9,46,30.14,10.0,West,6.9,-,N/A,,Clear,270,2012-10-05 15:15:00
11:35 AM,79.0,55.6,44,30.13,10.0,NW,3.5,-,N/A,,Clear,320,2012-10-05 15:35:00
11:55 AM,79.0,55.4,44,30.12,10.0,Calm,Calm,-,N/A,,Clear,0,2012-10-05 15:55:00
12:15 PM,79.5,55.0,43,30.11,10.0,Calm,Calm,-,N/A,,Clear,0,2012-10-05 16:15:00
12:55 PM,80.2,53.1,39,30.09,10.0,Calm,Calm,-,N/A,,Clear,0,2012-10-05 16:55:00
1:15 PM,80.4,53.1,39,30.07,10.0,Calm,Calm,-,N/A,,Scattered Clouds,0,2012-10-05 17:15:00
1:35 PM,81.7,52.0,36,30.06,10.0,South,3.5,-,N/A,,Clear,180,2012-10-05 17:35:00
1:55 PM,82.2,53.2,37,30.05,10.0,SE,3.5,-,N/A,,Clear,130,2012-10-05 17:55:00
2:15 PM,82.2,52.0,35,30.04,10.0,South,3.5,-,N/A,,Scattered Clouds,190,2012-10-05 18:15:00
2:35 PM,82.4,51.4,34,30.03,10.0,South,6.9,11.5,N/A,,Clear,190,2012-10-05 18:35:00
2:55 PM,82.4,51.4,34,30.03,10.0,South,6.9,-,N/A,,Clear,170,2012-10-05 18:55:00
3:15 PM,82.9,53.1,36,30.02,10.0,WSW,5.8,-,N/A,,Clear,240,2012-10-05 19:15:00
3:35 PM,82.8,52.7,35,30.02,10.0,WSW,5.8,16.1,N/A,,Clear,240,2012-10-05 19:35:00
3:55 PM,82.4,52.3,35,30.01,10.0,SSW,8.1,-,N/A,,Clear,200,2012-10-05 19:55:00
4:15 PM,81.5,52.5,37,30.01,10.0,WSW,5.8,-,N/A,,Clear,250,2012-10-05 20:15:00
4:35 PM,81.7,52.0,36,30.01,10.0,SW,11.5,-,N/A,,Clear,220,2012-10-05 20:35:00
4:55 PM,80.8,52.2,37,30.01,10.0,SW,5.8,-,N/A,,Clear,230,2012-10-05 20:55:00
5:15 PM,80.4,53.2,39,30.01,10.0,SW,5.8,-,N/A,,Clear,230,2012-10-05 21:15:00
5:35 PM,79.5,53.1,40,30.01,10.0,WSW,6.9,-,N/A,,Clear,250,2012-10-05 21:35:00
5:55 PM,79.3,53.2,40,30.00,10.0,SSW,6.9,-,N/A,,Clear,210,2012-10-05 21:55:00
6:15 PM,77.7,54.3,44,30.00,10.0,SSW,5.8,-,N/A,,Clear,210,2012-10-05 22:15:00
6:35 PM,75.6,55.6,50,30.00,10.0,SW,4.6,-,N/A,,Clear,220,2012-10-05 22:35:00
6:55 PM,71.6,56.8,60,30.00,10.0,Calm,Calm,-,N/A,,Clear,0,2012-10-05 22:55:00
7:15 PM,69.3,57.6,66,30.00,10.0,Calm,Calm,-,N/A,,Clear,0,2012-10-05 23:15:00
7:35 PM,68.5,57.4,67,30.00,10.0,Calm,Calm,-,N/A,,Clear,0,2012-10-05 23:35:00
7:55 PM,67.1,57.4,71,30.00,10.0,Calm,Calm,-,N/A,,Clear,0,2012-10-05 23:55:00
8:15 PM,66.2,57.2,73,30.00,10.0,Calm,Calm,-,N/A,,Clear,0,2012-10-06 00:15:00
8:35 PM,64.9,57.2,76,30.00,10.0,Calm,Calm,-,N/A,,Clear,0,2012-10-06 00:35:00
8:55 PM,64.4,56.5,75,30.00,10.0,Calm,Calm,-,N/A,,Clear,0,2012-10-06 00:55:00
9:15 PM,63.1,56.8,80,30.00,10.0,Calm,Calm,-,N/A,,Clear,0,2012-10-06 01:15:00
9:35 PM,63.0,57.0,81,30.00,10.0,Calm,Calm,-,N/A,,Clear,0,2012-10-06 01:35:00
9:55 PM,61.9,56.5,82,29.99,10.0,Calm,Calm,-,N/A,,Clear,0,2012-10-06 01:55:00
10:15 PM,61.0,56.7,86,29.99,10.0,Calm,Calm,-,N/A,,Clear,0,2012-10-06 02:15:00
10:35 PM,60.8,57.2,88,29.99,10.0,Calm,Calm,-,N/A,,Clear,0,2012-10-06 02:35:00
10:55 PM,60.1,57.0,90,29.99,10.0,Calm,Calm,-,N/A,,Clear,0,2012-10-06 02:55:00
11:15 PM,59.9,56.3,88,29.97,10.0,Calm,Calm,-,N/A,,Clear,0,2012-10-06 03:15:00
11:35 PM,59.0,57.6,95,29.97,10.0,Calm,Calm,-,N/A,,Clear,0,2012-10-06 03:35:00
11:55 PM,60.3,59.0,96,29.96,10.0,Calm,Calm,-,N/A,,Clear,0,2012-10-06 03:55:00